Wind_Speed
17 17 17 17 18 18 19 19 18 17 15 14 14 14 15 13 12 10 9 10 10 11 11 12 11 8 8 7 7 8 8 9 7 6 5 4 4 5 6 7 7 7 7 7 7 7 7 6 6 6 7 7 7 6 5 4 4 4 5 5 5 6 6 7 7 7 7 7 7 7 8 9 9 9 9 10 10 11 12 12 13 14 15 16 16
17 17 18 18 18 19 19 19 18 16 14 13 13 13 14 13 12 11 9 9 10 12 12 13 11 8 9 9 7 9 9 10 9 7 6 4 4 4 5 5 6 7 7 7 7 7 7 7 6 7 7 7 6 5 4 3 2 3 3 4 4 4 5 6 6 6 6 6 6 6 7 7 7 7 7 7 8 8 9 10 11 13 14 15 16
18 18 18 17 17 17 19 19 18 16 13 12 13 13 13 13 12 11 9 9 11 13 14 12 9 7 9 10 8 8 9 9 11 8 6 5 4 4 5 4 5 6 6 7 7 7 7 6 6 6 6 5 5 4 3 2 1 1 2 2 3 3 4 5 5 5 6 6 6 6 6 6 6 6 6 6 6 7 8 9 10 11 12 14 15
19 18 18 17 16 16 18 19 17 15 13 13 13 13 12 12 10 8 9 11 12 12 12 9 6 7 10 11 10 9 8 7 9 9 5 5 5 5 5 4 4 4 5 6 6 7 6 6 5 5 4 3 3 3 2 1 1 0 1 2 2 3 4 4 4 4 5 5 5 5 5 5 5 6 6 6 7 7 8 9 9 10 11 12 13
17 17 18 18 17 18 19 20 18 14 13 13 12 11 11 11 8 7 10 12 11 10 11 9 7 9 10 10 10 9 8 7 9 8 5 6 6 5 5 4 3 4 4 5 6 6 5 5 5 4 3 3 3 3 2 2 1 1 1 1 2 3 3 3 3 3 4 4 4 4 5 5 5 6 7 7 8 8 8 9 9 10 10 11 11
18 19 20 20 19 18 21 21 17 13 12 12 11 10 12 12 10 11 12 11 10 10 12 12 9 9 10 11 10 8 7 8 8 8 7 7 6 5 6 5 4 4 4 4 4 4 4 4 4 3 3 3 3 3 3 2 2 1 1 1 1 1 2 2 3 3 4 4 4 5 5 6 6 6 7 7 8 8 9 9 10 10 10 10 10
19 20 21 21 19 18 21 21 16 13 12 12 10 10 11 12 12 13 11 10 9 9 10 11 9 10 11 11 10 9 8 8 8 9 9 8 6 6 5 5 4 4 4 4 4 3 3 3 3 3 3 3 3 3 3 2 2 1 1 1 0 1 2 3 4 4 4 5 5 6 6 6 7 7 7 7 8 8 9 9 10 10 9 9 9
20 21 22 19 15 15 18 18 15 13 12 12 11 9 8 9 10 10 9 9 9 9 9 10 10 11 11 10 10 10 9 9 9 10 9 8 7 6 5 5 5 4 4 3 3 2 2 2 2 2 2 3 3 3 3 2 2 2 1 1 1 2 3 4 5 5 6 6 6 6 7 7 7 7 7 8 8 8 9 9 9 9 8 8 8
16 16 17 14 11 10 11 12 11 11 12 14 13 10 9 10 9 9 10 11 10 10 10 11 11 11 10 9 9 10 9 9 10 10 9 7 7 7 5 5 5 4 3 2 2 2 2 3 3 2 2 3 3 3 3 3 2 1 1 1 2 3 4 5 6 6 6 6 6 7 7 8 8 8 8 8 8 8 9 9 8 8 8 8 8
6 8 11 10 10 10 9 10 9 9 10 13 15 12 10 10 10 10 10 10 10 11 10 10 11 11 8 9 10 9 9 9 9 9 8 7 7 6 5 4 4 4 4 3 2 2 3 3 3 2 2 3 3 3 3 2 1 0 1 3 4 4 5 6 6 7 7 6 7 7 8 8 8 8 9 9 9 9 9 8 8 8 8 8 8
2 5 8 9 10 10 10 11 9 8 7 9 14 12 10 10 10 11 10 9 11 12 10 10 11 11 9 9 10 10 9 8 7 7 6 6 6 5 4 4 4 4 4 3 3 3 3 3 2 3 3 3 4 3 2 1 1 2 3 4 4 5 6 6 7 7 7 7 7 8 8 8 8 8 9 9 9 9 9 9 8 8 8 8 8
3 4 7 9 10 10 10 11 10 8 8 8 11 11 10 10 9 9 10 11 12 11 10 11 11 10 9 9 10 9 8 6 6 6 5 5 6 5 5 5 5 4 4 4 4 4 5 4 4 4 4 4 3 2 1 1 2 3 4 4 5 6 7 7 7 7 7 6 7 7 8 8 8 8 8 8 8 8 8 8 8 8 8 8 8
6 6 8 8 9 10 10 11 10 8 8 8 10 9 9 11 11 11 12 12 12 10 10 11 10 9 9 9 9 8 6 5 6 6 6 6 7 6 6 6 5 4 5 5 6 6 6 5 5 4 4 4 3 2 2 3 3 4 5 5 6 6 7 7 7 6 6 6 6 6 7 8 8 8 8 7 7 7 7 8 8 8 8 8 8
8 9 9 9 8 8 9 10 10 9 8 8 10 10 8 11 12 12 13 12 12 11 10 10 10 10 9 9 8 7 6 6 6 6 7 7 6 5 6 6 6 6 6 6 6 6 6 5 5 5 4 4 3 3 3 3 4 5 6 6 7 7 7 6 6 6 6 6 6 6 7 7 8 8 7 7 7 7 7 7 7 8 8 8 9
9 10 9 8 8 7 8 11 11 9 8 9 10 10 8 11 13 13 12 11 12 12 11 10 10 9 9 9 8 7 6 5 6 7 7 6 5 4 4 6 7 7 7 7 7 6 6 6 5 5 4 4 4 3 3 4 5 6 6 7 7 7 7 6 6 5 5 5 6 6 7 7 8 8 7 7 7 7 7 7 7 7 8 8 9
10 10 8 7 7 7 8 11 11 9 9 10 10 10 10 12 14 14 11 10 12 12 10 10 10 10 10 9 8 7 6 4 6 6 5 5 4 4 5 6 6 6 6 6 6 6 6 6 5 5 4 4 4 3 4 5 6 7 7 7 7 7 7 6 6 5 5 5 5 6 6 7 7 7 7 7 7 7 7 7 7 8 8 8 9
12 10 8 7 7 8 9 11 11 10 10 11 12 12 12 13 14 13 11 10 12 11 10 10 11 10 10 9 8 8 7 6 6 6 4 4 4 5 5 6 5 5 5 6 6 6 5 5 5 4 4 4 4 4 5 6 7 7 7 7 7 7 6 6 5 5 5 5 5 6 6 6 6 7 7 7 8 8 8 9 9 9 9 9 10
11 10 9 8 9 10 11 12 12 11 11 13 13 12 12 13 12 11 10 10 11 10 10 10 10 9 8 8 8 8 8 8 8 7 6 6 6 5 5 6 5 5 5 4 5 5 5 5 5 4 4 5 5 5 6 7 7 8 8 7 7 6 5 4 4 5 5 5 5 6 6 6 7 7 8 9 9 10 10 10 10 10 10 10 10
11 10 10 10 11 12 12 13 13 12 12 12 13 12 12 12 10 10 10 10 9 9 10 10 10 9 9 9 9 9 9 8 9 8 8 8 7 6 6 7 7 6 4 4 4 4 5 5 4 5 5 5 5 6 6 7 7 7 7 6 5 4 4 4 5 5 6 6 6 6 7 8 8 9 10 10 11 11 11 12 11 11 11 11 10
11 10 10 11 12 12 13 13 13 13 12 11 12 12 12 10 10 11 10 9 9 9 10 10 10 10 10 9 9 10 10 10 10 10 10 9 8 8 8 9 8 6 5 5 4 4 5 5 5 5 5 5 6 6 7 6 6 6 5 5 4 4 4 5 5 6 6 7 7 8 9 9 10 10 11 12 12 12 12 12 12 11 11 11 10
11 11 11 11 12 12 12 13 14 13 11 11 13 13 12 10 11 11 9 9 10 9 9 10 10 10 10 9 10 11 11 11 11 11 11 10 9 8 9 9 8 7 6 5 4 4 4 4 6 5 5 6 6 6 6 5 5 4 4 3 4 4 5 5 6 7 7 8 9 9 10 11 11 12 12 13 13 13 13 12 12 12 11 11 10
12 12 11 11 11 12 13 14 15 13 12 13 15 14 12 10 11 11 9 10 10 10 10 11 11 11 11 10 11 13 13 12 11 11 11 10 9 9 9 10 9 8 7 5 4 3 4 4 5 5 4 5 5 5 5 4 4 3 3 3 4 5 6 6 7 8 9 9 10 11 11 12 13 13 13 13 13 13 12 12 12 12 11 11 10
13 12 12 11 12 13 14 15 16 15 15 15 15 14 12 11 12 12 11 11 11 11 11 11 12 12 11 11 13 14 14 12 11 11 10 9 9 9 9 9 9 8 7 5 3 2 3 4 4 4 3 4 4 4 3 3 2 2 2 3 4 6 7 8 8 9 10 10 11 11 12 13 13 13 13 13 12 12 12 12 12 11 11 11 10
13 12 11 12 13 14 15 16 17 16 16 16 15 14 14 13 13 14 13 11 11 12 12 12 12 12 12 12 14 15 13 12 12 11 10 9 8 9 9 8 8 8 6 4 3 2 3 4 3 3 3 3 2 2 2 2 2 2 3 4 6 7 8 8 9 10 10 11 11 12 12 12 12 12 12 12 12 12 12 12 11 11 11 11 10
12 11 11 13 15 15 16 16 16 15 16 16 16 14 13 13 13 13 12 11 12 12 12 12 11 11 12 13 14 14 13 12 12 11 10 9 9 9 8 7 6 6 5 4 3 3 4 4 2 3 2 2 1 1 1 1 2 3 4 5 6 7 8 9 9 10 11 11 11 11 11 11 11 11 11 11 11 11 11 11 11 11 11 10 11
11 11 12 13 15 16 16 16 17 17 16 16 15 14 13 13 13 12 12 12 12 12 12 12 10 10 11 13 14 14 13 13 11 10 10 10 10 10 9 7 6 5 5 4 3 3 4 3 2 2 2 1 2 2 2 2 3 4 5 6 7 8 8 9 9 10 11 11 11 11 11 11 11 11 11 11 11 11 11 10 10 11 10 10 10
12 13 14 15 16 16 16 17 18 18 18 16 15 14 14 13 12 12 12 12 12 12 12 11 9 9 11 12 13 13 13 13 12 11 10 10 10 11 10 8 7 5 4 4 4 4 4 3 2 2 2 2 3 3 3 4 5 5 6 6 7 7 8 9 11 12 12 12 12 12 12 11 11 11 11 10 10 10 10 10 10 10 10 10 10
14 15 15 16 16 17 17 18 18 18 18 17 16 15 15 13 12 12 11 10 10 10 10 10 9 9 10 11 12 12 12 12 11 11 10 9 9 10 9 8 7 5 5 5 4 4 5 3 2 3 3 3 4 4 4 5 5 5 6 6 7 8 9 11 12 13 13 12 12 12 11 11 11 11 10 10 10 10 10 10 10 10 10 10 10
16 16 16 16 16 17 17 17 16 17 17 17 17 16 14 12 12 11 10 9 9 9 9 9 8 8 9 10 10 10 10 11 11 10 9 8 8 9 8 7 7 6 6 6 5 5 6 4 4 4 5 5 5 5 4 4 4 5 6 7 8 9 11 12 13 13 13 12 12 11 11 11 11 11 11 10 10 10 10 10 10 10 10 10 10
16 16 16 16 15 16 15 14 14 15 16 16 16 15 13 12 11 10 9 8 8 8 7 7 7 8 9 9 9 9 9 10 10 9 9 9 8 9 9 9 8 8 8 7 6 6 7 6 5 6 6 6 5 4 4 4 5 6 7 8 9 10 11 12 12 12 12 12 11 11 11 11 11 11 11 11 11 11 10 10 10 10 11 11 11
16 16 15 15 14 14 13 13 13 14 14 14 14 14 13 12 10 9 8 8 8 8 7 7 7 8 8 9 9 9 9 10 10 9 9 9 9 9 10 11 10 9 9 9 7 8 8 7 7 6 5 5 4 4 4 5 6 7 8 9 10 11 12 12 12 11 11 11 11 11 11 11 11 11 12 12 12 12 12 11 11 12 12 13 13
15 15 14 14 13 14 13 13 13 14 15 14 14 14 13 11 10 9 9 9 9 8 8 7 8 8 8 9 10 9 10 10 10 10 10 10 10 10 12 12 11 10 10 9 8 9 8 7 6 5 5 4 4 4 5 6 7 7 8 9 10 11 12 12 11 11 11 11 12 11 11 11 12 12 13 13 13 13 13 13 13 14 14 14 14
15 14 14 13 13 13 13 14 14 15 15 15 14 14 13 11 11 11 10 10 10 10 9 9 9 9 10 11 11 11 11 11 11 11 10 11 11 12 13 13 11 11 11 9 8 8 7 6 6 5 5 4 4 5 6 7 8 8 9 10 10 11 12 12 12 12 12 12 13 13 13 13 13 14 14 15 15 15 15 15 15 16 16 16 16
15 14 14 13 13 13 13 14 14 15 16 16 16 15 14 13 12 12 12 11 10 10 11 11 11 11 11 12 13 13 12 12 12 12 10 11 12 12 13 12 10 10 10 9 8 8 8 8 7 6 6 6 6 6 7 8 9 9 10 10 11 12 12 12 12 13 13 13 14 15 14 14 15 15 16 16 17 17 17 17 18 18 18 18 18
15 14 14 14 13 13 13 14 14 15 15 16 16 16 15 14 13 13 12 12 11 11 12 12 12 11 12 12 13 13 13 13 13 12 11 12 13 13 13 12 10 9 10 9 9 9 9 9 8 7 7 8 8 8 9 9 10 10 10 11 11 12 12 13 13 14 14 14 15 16 15 15 16 17 17 18 19 19 20 20 20 20 21 21 21
15 14 15 14 14 14 14 13 14 15 15 15 16 15 15 14 13 12 11 11 11 11 11 11 11 12 12 12 12 12 13 14 14 12 12 12 13 14 14 12 11 11 11 12 11 11 10 9 9 9 9 10 10 10 10 11 12 12 12 11 12 13 13 14 14 15 15 15 16 17 16 16 17 18 19 20 21 21 22 22 22 22 23 23 23
17 16 15 15 16 15 14 13 13 14 15 16 16 15 14 14 13 12 12 11 11 11 11 11 12 13 13 13 13 12 13 14 14 12 11 11 13 15 14 12 11 11 12 13 13 12 10 10 11 12 12 13 13 12 12 12 13 14 14 13 14 14 15 15 16 16 16 17 17 18 17 17 18 20 21 22 22 23 24 24 24 25 25 25 25
19 17 17 17 16 15 14 14 14 15 16 17 17 16 16 15 15 14 13 12 12 12 12 13 13 13 13 14 14 14 15 16 14 12 12 12 13 14 14 11 11 11 12 13 14 14 12 12 13 14 15 15 15 15 15 15 15 15 16 16 16 16 17 18 18 18 17 18 18 19 18 18 19 21 22 22 23 25 26 26 27 27 28 27 27
22 20 19 17 16 16 16 17 17 16 16 17 18 18 17 17 17 17 15 15 15 14 14 15 15 14 14 15 16 16 17 18 16 13 13 13 13 14 14 13 13 13 14 15 16 16 15 15 16 17 18 18 18 18 18 17 17 18 17 17 17 18 19 20 20 20 20 20 20 20 20 20 21 22 23 24 26 27 28 28 29 30 31 31 31
23 22 21 18 17 18 19 20 19 17 17 18 18 18 19 19 19 19 18 18 17 15 16 17 16 15 16 16 17 17 18 18 17 15 14 13 13 14 15 16 16 16 16 17 18 18 19 19 20 20 21 21 21 21 21 20 20 21 20 20 19 20 20 21 21 22 23 23 23 23 22 23 24 25 25 27 29 30 30 31 32 33 34 35 36
25 24 21 19 20 20 21 22 21 19 19 20 20 20 20 21 21 21 20 19 18 17 18 19 18 18 18 18 18 18 18 19 18 17 15 14 14 16 17 18 18 19 19 19 20 21 21 22 23 23 24 24 25 25 25 24 23 23 23 23 23 22 22 23 23 24 25 26 26 26 26 26 27 28 29 30 32 32 33 34 35 36 37 38 40
27 25 21 21 22 22 22 23 22 21 22 23 23 22 23 23 22 22 21 21 20 19 19 20 19 19 19 20 20 20 20 20 20 19 18 16 17 18 19 19 20 21 21 22 22 23 24 24 25 26 26 27 28 28 28 27 27 26 26 27 27 26 26 26 27 27 27 27 28 28 28 27 28 29 31 32 34 36 36 37 38 38 39 40 42
29 25 23 24 24 22 22 23 23 23 24 25 25 25 25 24 23 23 23 23 23 22 21 20 20 20 21 21 22 22 21 20 21 21 20 19 19 20 21 22 22 22 23 24 25 25 26 27 27 28 29 29 30 30 31 31 31 30 31 32 32 32 32 31 32 32 31 31 31 31 30 29 29 30 32 33 35 38 39 40 41 41 41 42 44
29 26 26 27 26 23 22 23 24 24 24 25 26 27 27 26 25 25 25 25 25 23 22 21 21 22 22 21 22 22 21 21 21 22 22 22 22 23 23 24 24 24 25 26 27 28 29 29 29 30 31 32 33 33 33 33 33 33 34 35 35 36 37 36 37 37 38 37 36 35 34 33 33 34 35 36 38 40 41 42 43 44 44 45 46
29 28 29 29 27 24 23 24 25 25 25 25 26 27 28 27 26 26 26 26 25 24 23 23 23 23 22 22 23 24 23 23 23 23 24 24 24 24 25 25 26 26 27 28 29 30 30 31 31 32 33 34 35 35 36 36 36 36 36 36 37 38 39 39 40 41 42 43 42 40 39 37 37 38 39 40 41 43 44 45 46 47 47 47 47
29 30 31 31 29 26 24 25 26 26 26 27 27 28 28 28 27 27 27 27 26 25 25 26 25 24 23 23 25 25 23 23 24 24 25 25 25 26 26 27 28 29 30 31 31 31 31 32 33 34 35 36 36 36 37 38 38 38 38 39 39 40 40 41 42 43 44 45 45 45 43 41 42 42 42 43 44 46 48 49 51 51 51 51 50
29 30 32 32 31 29 27 26 27 27 27 28 28 29 29 29 29 28 28 28 27 27 27 28 26 25 24 24 25 25 24 24 25 25 26 26 27 27 28 29 30 31 32 33 33 34 34 35 35 36 37 37 38 38 39 40 41 41 42 42 43 43 43 44 45 46 47 48 49 49 48 46 47 47 46 47 49 50 52 53 54 55 56 55 55
30 31 33 34 34 31 30 29 28 28 29 29 29 30 30 31 31 31 29 29 28 28 29 29 27 26 25 25 26 26 26 27 27 28 28 29 29 30 31 32 33 33 33 34 35 36 36 37 37 38 38 39 39 40 41 42 43 44 45 45 45 46 47 48 49 49 50 50 51 52 52 51 50 50 50 52 54 55 55 56 56 57 59 59 59
32 32 34 36 35 34 33 32 31 30 31 31 32 32 32 33 34 34 32 30 30 31 31 30 29 28 27 27 27 28 29 30 31 31 31 32 32 33 34 35 35 36 36 36 37 37 38 39 39 40 40 41 42 43 44 45 46 47 48 48 48 49 51 52 52 52 52 53 54 55 55 53 52 53 54 56 58 58 58 58 59 60 61 62 62
33 33 34 36 36 35 35 34 32 32 33 34 34 35 36 36 36 37 35 33 33 33 33 32 32 31 30 29 29 30 31 32 32 33 34 35 35 36 36 37 37 37 38 38 39 39 40 41 41 42 42 43 44 45 46 47 48 49 50 50 51 54 55 55 56 56 56 56 56 57 57 56 56 57 58 59 61 62 62 62 62 62 63 62 62
35 33 34 36 36 36 36 35 33 33 34 35 35 35 35 35 36 37 36 35 35 35 33 33 32 32 31 31 31 32 33 34 35 35 36 36 37 37 37 37 37 37 38 38 39 39 40 41 42 43 43 44 45 46 47 49 50 51 52 53 55 57 58 59 60 60 59 57 57 59 61 61 61 62 62 63 65 66 66 65 64 63 62 61 60
Wind_Direction
264 260 256 253 253 250 245 242 243 243 240 242 248 252 252 250 252 254 251 254 260 265 268 259 254 255 252 259 265 265 265 257 279 315 303 304 309 303 301 294 290 286 279 273 270 270 271 273 276 278 278 276 274 272 269 271 277 283 288 292 300 304 300 294 290 287 287 288 290 293 294 292 290 287 286 285 283 281 279 277 276 274 273 272 271
256 252 251 252 250 245 240 238 237 236 237 243 245 245 245 246 249 249 248 254 257 259 262 247 236 240 249 263 273 271 269 251 261 304 313 305 308 301 296 287 282 281 277 273 269 267 267 267 270 270 270 270 270 271 270 270 278 290 300 308 316 314 302 295 291 290 292 294 297 301 302 302 300 297 295 292 292 292 291 289 286 284 281 278 275
252 250 252 253 249 241 235 231 229 230 237 244 242 242 244 245 246 246 249 255 252 253 253 238 225 236 251 264 267 266 269 245 250 283 311 307 304 298 288 277 275 276 277 277 273 268 265 262 261 261 262 263 266 267 265 264 268 294 312 318 315 304 293 287 286 291 298 301 304 307 307 305 303 302 301 300 301 303 303 303 301 298 293 288 283
252 250 251 251 245 238 230 223 223 226 233 239 241 242 242 244 244 243 250 253 247 245 244 229 220 240 253 266 267 264 266 251 252 273 302 308 303 299 289 282 281 281 281 279 276 272 267 264 260 257 255 252 249 245 240 229 196 250 308 309 301 292 289 288 293 302 308 310 311 310 308 305 303 302 302 303 303 303 304 304 305 305 304 300 294
251 249 251 250 244 239 229 219 217 222 229 235 239 240 240 242 245 245 246 243 232 222 226 224 216 237 253 266 270 266 266 271 265 267 298 308 303 305 291 284 283 280 279 274 271 270 267 264 258 250 239 222 211 206 195 170 156 194 262 281 283 287 296 306 316 320 316 313 311 309 308 305 304 303 303 303 302 302 303 304 305 307 308 307 304
250 248 249 249 246 241 230 220 216 220 228 232 234 237 235 233 237 245 240 230 220 211 222 229 220 234 253 261 268 266 267 282 275 273 299 303 297 299 285 275 273 269 269 266 262 259 259 255 247 237 220 199 187 182 177 168 174 205 228 244 259 291 312 323 324 318 311 309 307 305 304 304 305 306 307 306 306 308 310 311 311 309 309 310 310
252 250 246 247 247 241 233 223 218 223 229 230 231 240 236 226 229 238 234 221 220 223 230 234 228 235 245 252 261 260 265 280 275 275 291 293 287 282 275 272 269 261 257 260 261 253 247 237 228 218 201 185 176 172 175 180 188 195 184 162 61 355 328 321 316 311 309 309 308 306 307 307 309 311 312 313 314 317 318 318 316 313 313 314 316
258 255 242 238 236 232 229 220 217 225 230 227 228 239 235 223 224 226 225 218 216 225 235 237 236 238 244 254 258 251 259 275 274 275 281 285 283 272 267 266 263 259 256 257 251 233 221 210 197 191 179 166 164 164 170 172 167 156 131 93 14 329 318 313 311 312 313 314 313 313 315 317 318 319 319 320 321 321 319 318 317 317 318 320 322
258 244 223 215 207 203 205 205 216 232 233 227 225 229 222 215 216 213 219 223 217 222 232 237 238 240 247 258 255 248 261 276 276 276 274 277 280 268 260 252 243 242 235 224 218 210 206 187 162 152 146 141 142 148 153 152 146 135 103 322 312 309 310 311 311 313 313 313 314 317 321 323 325 325 325 326 326 324 320 319 320 320 321 322 324
238 205 195 193 194 194 191 197 219 237 235 226 219 219 214 209 210 213 220 223 225 233 237 235 234 237 244 246 248 255 267 275 274 272 268 268 270 260 249 231 215 210 203 203 211 208 194 175 149 136 136 143 151 155 156 151 151 286 305 302 306 309 310 312 313 314 313 313 314 318 322 323 326 327 329 330 330 327 325 325 327 326 325 326 328
210 175 185 189 195 200 200 201 212 228 228 214 209 210 209 208 208 215 223 224 229 237 240 240 238 240 243 244 250 257 261 265 267 266 259 254 253 249 240 220 200 195 195 198 199 194 191 185 174 160 157 164 167 167 169 184 261 288 294 301 309 312 314 316 315 313 313 314 315 319 321 323 326 329 330 332 331 330 329 331 333 334 334 337 339
245 193 185 189 196 199 200 200 202 215 219 207 208 212 211 212 213 220 229 234 237 239 241 246 244 243 245 248 252 255 255 254 257 256 247 245 247 245 235 216 201 198 192 186 182 183 187 188 180 169 169 177 184 190 220 268 284 293 301 310 315 314 316 316 314 312 313 314 316 319 321 324 327 329 330 331 331 331 330 331 335 337 339 342 343
242 214 191 186 192 194 195 196 195 206 219 215 217 225 219 211 212 222 230 238 246 247 243 244 242 240 243 244 244 249 250 245 245 243 243 253 255 249 237 218 202 188 177 173 173 175 178 180 177 177 186 197 212 230 254 275 290 304 311 316 315 314 315 313 310 309 310 314 316 319 322 325 327 329 331 330 330 330 328 328 332 335 337 339 340
234 210 188 183 187 192 196 195 196 210 226 222 219 231 232 215 215 227 234 240 251 253 247 243 241 240 238 235 237 245 247 244 242 238 242 249 250 243 231 209 184 169 171 172 170 171 177 183 187 192 201 212 225 236 255 278 297 308 311 314 314 312 309 306 305 304 307 311 316 321 324 327 328 329 330 327 325 325 323 324 326 329 330 331 332
215 197 186 189 196 200 199 193 196 215 226 221 222 233 236 222 225 240 243 242 249 250 245 242 240 238 236 235 238 242 242 243 240 232 230 228 226 225 209 190 176 172 178 178 175 179 185 191 199 205 211 222 234 247 268 290 304 308 310 311 308 306 303 302 303 304 308 314 320 325 328 329 329 329 327 323 321 319 318 318 319 320 321 322 323
208 203 205 207 206 206 197 188 195 216 222 221 229 233 232 229 234 242 240 238 244 242 237 237 235 234 240 243 242 240 236 233 224 214 208 207 208 205 190 183 181 181 187 190 190 194 198 205 212 217 226 240 250 266 287 300 306 308 309 307 305 305 306 307 309 312 318 323 329 332 333 331 329 328 325 322 319 315 313 313 314 315 316 317 317
219 221 229 228 219 211 200 196 206 222 224 225 232 233 233 232 233 236 232 233 239 233 226 229 231 236 242 238 234 239 241 233 218 211 211 217 214 203 195 193 196 200 202 200 202 209 216 225 234 243 252 261 272 286 299 306 308 308 307 306 307 309 310 313 317 323 329 331 334 334 332 330 329 329 327 324 320 317 315 314 315 315 313 312 311
227 235 240 230 219 211 211 215 218 223 228 230 231 233 234 230 225 228 228 229 231 226 222 225 229 233 232 227 232 242 241 232 226 226 224 220 220 217 210 210 217 224 220 210 210 218 230 241 253 265 267 272 284 296 304 307 307 306 306 308 309 311 313 320 327 332 334 335 336 335 334 334 333 332 328 324 321 319 318 317 315 312 310 308 306
236 244 239 224 216 214 219 223 222 224 230 235 237 235 234 231 223 223 226 224 220 221 224 226 228 229 227 231 240 242 237 232 233 233 225 221 226 227 224 228 234 237 237 235 231 231 240 253 265 271 271 282 295 303 308 306 305 306 308 310 311 316 323 331 336 338 337 338 337 336 335 333 330 327 324 321 320 319 318 316 313 309 306 303 300
238 239 229 220 217 217 219 222 227 230 230 236 244 243 241 239 231 229 232 227 220 222 227 230 230 231 234 239 241 237 237 238 238 239 237 234 233 231 234 238 240 243 248 245 240 242 251 263 272 275 284 299 306 308 307 304 305 307 309 313 320 328 333 336 338 338 337 336 335 332 330 328 325 323 320 319 318 317 315 312 309 305 301 298 296
232 231 225 218 215 218 219 222 232 238 234 235 242 245 247 245 239 239 241 234 229 229 231 235 237 238 241 243 239 238 239 240 240 242 244 243 239 234 237 241 241 243 250 249 244 249 261 273 277 286 304 310 309 309 308 307 309 310 315 323 329 332 333 335 335 333 333 331 330 329 326 325 323 321 320 319 317 315 312 308 304 301 297 295 294
224 222 221 218 218 223 224 225 232 237 236 238 240 241 242 243 247 249 247 243 244 246 243 243 245 245 243 240 237 239 239 239 240 240 242 244 241 234 233 240 240 236 239 242 242 254 269 277 282 297 310 307 309 312 309 309 308 309 321 327 330 331 330 331 330 328 328 327 327 326 324 322 320 319 318 316 314 311 308 305 302 300 297 296 296
218 216 217 219 225 229 229 230 233 234 236 240 242 242 241 243 250 249 246 248 252 254 251 248 248 245 239 235 234 234 235 238 240 235 235 240 237 229 227 232 234 232 233 233 231 248 266 272 284 303 306 300 302 303 298 299 300 310 325 328 328 327 325 326 325 325 325 324 324 323 321 320 319 317 316 315 313 310 308 306 304 303 301 300 300
216 217 219 221 226 230 231 232 235 237 241 244 246 247 243 242 245 244 243 247 248 250 251 250 248 244 237 229 224 225 233 240 237 230 231 233 227 223 225 224 223 223 226 226 216 222 248 263 280 284 278 279 280 281 281 288 304 317 323 324 323 321 321 321 320 322 323 322 323 322 321 320 319 319 318 316 315 313 311 310 309 309 308 307 306
222 224 223 222 226 228 229 232 235 239 243 246 247 248 247 247 248 247 248 250 249 249 250 249 244 239 233 224 219 226 236 235 229 227 232 233 230 228 224 214 211 213 214 219 209 205 231 244 247 243 249 261 265 271 274 296 310 314 315 316 315 314 315 316 320 325 327 327 327 325 324 324 323 322 321 318 316 314 314 313 312 312 311 310 309
233 237 233 227 227 228 227 229 231 233 237 242 248 250 251 252 251 251 251 249 249 250 248 245 237 231 228 224 224 230 230 226 224 227 230 232 235 233 222 215 221 217 209 215 203 198 221 226 208 217 239 258 259 266 280 295 301 302 306 307 310 314 317 324 332 336 335 334 331 329 327 326 325 323 320 318 316 314 314 313 313 312 312 312 312
241 243 239 233 232 232 230 229 228 230 232 237 245 252 255 253 252 252 250 245 243 243 240 237 232 229 227 224 224 226 226 229 230 228 228 230 233 233 223 216 221 212 203 215 199 192 216 220 194 220 245 252 259 273 280 284 289 293 299 307 317 325 330 338 342 339 336 333 330 328 327 326 324 321 318 316 314 314 313 313 313 313 314 315 315
249 245 241 237 235 234 233 231 230 233 236 238 244 252 257 255 250 251 249 241 237 235 232 232 227 221 224 225 226 230 232 233 230 224 224 223 221 223 216 207 211 207 206 216 199 197 222 232 223 236 248 253 262 271 273 276 285 294 307 322 332 337 341 342 339 334 331 328 327 326 325 324 322 318 316 315 315 315 315 315 315 315 315 316 316
250 246 242 238 235 235 235 233 232 235 239 242 247 252 254 249 243 241 240 238 240 240 236 232 224 216 219 223 227 229 225 223 222 217 214 207 203 208 206 206 212 209 211 219 210 211 228 237 235 242 251 256 263 269 272 282 297 313 327 335 338 340 340 336 332 329 327 326 326 325 324 322 320 318 317 317 318 318 318 318 317 317 317 316 315
245 242 240 238 237 237 238 237 236 239 242 246 249 249 246 241 239 235 235 240 242 234 228 223 215 213 217 219 219 217 216 220 219 212 206 199 199 201 201 210 216 212 217 221 216 220 230 238 239 242 249 255 263 271 282 303 319 327 332 334 336 337 333 329 326 325 325 325 324 324 322 320 318 318 318 319 320 319 319 318 316 316 315 315 315
242 242 243 243 244 246 246 243 242 244 248 250 250 248 243 241 243 239 237 243 238 222 215 212 204 203 212 218 216 213 219 223 216 210 208 204 207 206 204 215 217 215 219 218 215 224 231 237 239 239 246 257 269 286 306 319 323 326 328 330 331 328 325 322 322 321 321 320 320 318 317 315 315 315 315 315 316 315 315 313 310 310 310 312 314
243 246 248 248 250 253 253 250 248 248 251 251 248 244 242 241 244 242 236 235 234 228 221 214 205 202 209 218 219 218 225 226 219 219 219 214 214 210 210 218 216 214 222 220 216 224 228 234 241 242 248 258 274 296 311 315 317 321 323 324 324 320 317 316 315 315 314 311 310 309 309 309 309 310 310 311 311 311 310 307 306 306 308 312 314
244 248 250 251 251 252 253 252 250 249 249 249 244 238 238 240 240 240 238 232 230 232 230 224 218 217 219 223 228 229 230 230 228 228 225 218 216 214 217 221 215 214 225 225 217 221 226 233 240 246 255 268 282 292 301 307 310 314 315 314 314 311 309 308 307 306 304 303 303 303 304 306 306 306 306 308 309 309 308 306 304 304 306 309 311
243 248 252 254 252 251 252 251 250 249 246 245 241 235 236 239 239 239 240 236 230 230 233 233 232 232 229 227 230 231 229 230 230 228 223 220 221 222 224 227 222 221 229 229 222 223 226 229 234 240 253 268 278 282 291 299 301 301 302 302 302 301 300 300 300 298 297 299 300 300 302 304 303 302 303 305 307 308 307 306 304 302 301 303 305
244 250 254 255 254 252 251 250 250 247 241 239 239 238 237 239 238 237 238 238 235 232 234 237 238 237 233 230 231 228 223 224 227 224 218 218 223 229 234 238 236 231 233 235 229 225 226 230 235 242 251 262 269 274 282 288 290 289 289 289 291 291 291 292 292 292 293 295 297 298 300 302 301 299 299 301 304 305 306 305 304 302 300 299 300
247 251 253 253 252 251 250 249 246 243 239 239 241 241 239 237 233 230 231 234 237 238 239 240 240 240 239 238 237 230 222 224 229 227 222 222 228 237 244 243 236 228 231 237 235 229 228 233 240 247 252 258 263 268 274 278 280 281 283 284 284 284 285 285 286 287 289 291 293 294 296 298 298 296 295 297 300 302 302 302 301 300 298 297 296
251 251 250 250 249 250 250 247 244 240 238 240 240 238 236 232 229 227 228 231 237 241 242 240 239 240 243 243 239 233 229 232 235 233 231 233 237 243 246 242 230 227 233 242 246 242 238 240 247 252 255 259 263 267 271 274 276 277 278 280 280 281 281 282 282 284 286 287 288 290 293 295 295 293 292 293 296 298 299 298 297 296 295 293 292
253 251 249 248 247 249 249 246 242 238 237 237 236 233 231 231 233 235 239 243 244 244 244 243 241 241 243 243 239 236 236 239 240 238 237 237 238 243 247 244 237 236 242 250 256 257 255 252 254 257 259 261 265 269 272 275 277 277 277 278 279 280 280 279 278 278 280 282 283 286 288 290 290 290 290 292 293 294 295 294 293 292 291 289 288
253 252 251 249 246 245 246 246 245 241 240 239 236 233 232 236 242 246 252 256 254 250 247 246 244 241 241 240 239 240 242 245 245 240 239 239 239 242 246 247 246 246 249 254 259 262 263 262 261 262 263 264 266 269 272 276 277 277 277 278 277 276 276 277 277 278 279 281 282 284 285 286 286 286 288 289 289 289 290 290 290 289 288 287 284
253 253 252 250 246 242 241 245 246 246 245 244 240 237 236 240 247 251 256 259 258 255 251 250 247 244 242 240 239 241 245 250 251 246 244 246 248 249 251 253 256 256 256 257 260 262 264 265 265 266 267 268 268 269 270 272 274 276 278 279 277 275 274 275 278 280 281 282 282 282 282 283 283 283 283 283 284 285 286 286 286 285 285 285 284
253 253 253 251 249 244 239 241 245 247 248 247 244 241 240 241 246 251 254 256 256 254 252 252 250 247 246 245 243 243 245 251 255 254 252 253 255 256 256 259 264 266 264 262 263 264 265 267 268 268 269 270 270 271 272 273 274 276 278 280 279 278 276 276 277 278 278 279 279 279 280 281 282 282 282 282 282 282 282 282 282 282 282 283 284
251 253 253 250 251 248 240 239 242 243 245 246 246 244 243 244 246 249 252 254 254 252 252 253 253 250 250 249 248 248 248 251 256 258 259 259 258 259 260 260 262 266 268 268 268 268 268 269 270 271 271 271 271 273 274 275 275 277 278 278 278 277 275 274 274 273 273 273 272 273 274 277 278 280 281 282 283 283 282 282 281 281 281 282 284
249 251 251 250 252 250 243 239 240 242 244 245 247 248 247 248 248 251 252 253 254 253 253 255 255 252 251 252 252 253 253 254 257 260 261 261 261 262 264 264 264 265 269 271 273 273 273 273 274 275 275 275 275 275 276 277 278 280 281 281 281 281 281 280 280 278 277 275 274 275 276 278 278 279 279 280 280 281 282 283 283 283 283 283 285
247 249 250 251 252 250 245 241 242 245 246 247 248 249 250 251 251 253 254 255 255 255 254 254 253 252 252 253 254 254 254 254 255 257 259 261 263 264 265 267 267 267 269 272 273 276 277 278 278 278 278 278 278 278 279 280 281 283 284 284 285 285 285 286 287 287 286 284 283 283 282 281 281 281 281 281 280 280 280 281 282 282 282 283 284
246 248 249 251 252 251 248 244 243 245 247 248 248 249 250 251 252 254 255 256 256 256 255 253 251 250 249 249 251 252 252 253 255 256 259 262 264 265 267 268 270 270 271 272 274 276 278 279 280 280 279 280 280 280 281 282 282 283 283 283 284 285 287 288 290 291 291 290 288 286 285 285 283 281 281 282 282 283 283 283 283 283 282 282 283
246 247 249 250 250 250 248 244 242 243 245 246 248 249 250 251 252 253 255 257 257 257 256 254 253 252 250 249 251 253 253 255 257 259 261 263 265 267 268 270 271 271 272 273 274 276 277 278 278 279 279 279 279 280 280 279 279 279 280 281 282 284 286 287 289 290 289 287 286 284 284 284 282 281 282 283 283 284 285 286 287 287 287 286 285
247 248 248 249 248 247 247 245 243 242 243 245 247 249 251 252 252 252 254 256 257 256 255 256 255 254 252 251 252 253 254 254 256 258 261 262 263 264 265 267 268 269 271 273 275 276 276 276 277 278 278 279 279 279 279 279 278 278 278 279 280 282 283 285 287 287 286 285 284 283 283 282 280 281 282 283 284 284 284 285 287 288 289 288 286
250 248 247 247 248 247 246 245 244 243 243 244 246 250 253 255 254 253 253 254 255 254 254 256 256 253 251 251 252 253 255 255 255 256 257 258 260 262 263 265 266 268 270 272 273 275 276 276 277 278 278 279 279 279 279 279 279 279 278 279 280 281 283 284 286 286 284 283 282 282 282 281 281 283 284 284 283 283 283 283 285 287 288 287 286
250 248 245 246 247 247 246 245 244 244 245 246 249 253 256 258 258 256 253 252 252 251 251 252 253 251 250 250 251 253 254 255 256 257 258 260 261 263 264 266 268 269 270 272 273 274 275 276 277 278 278 279 279 280 280 280 280 280 280 281 282 282 283 284 285 285 283 282 281 280 280 281 282 283 284 284 284 284 283 283 284 285 285 285 284
246 245 243 244 246 247 247 247 245 246 249 251 253 255 257 258 259 257 253 250 249 249 249 250 251 252 251 251 253 254 256 257 258 260 261 262 264 266 267 269 271 272 273 274 275 276 277 277 278 278 279 279 280 281 281 281 281 281 281 281 282 282 283 284 285 284 284 283 283 282 282 283 283 283 283 284 285 285 285 285 285 284 283 283 283
244 244 241 242 246 248 250 250 248 247 251 253 255 256 257 257 256 252 249 248 249 250 252 252 254 255 256 256 257 258 258 259 260 262 263 264 266 267 269 270 272 273 274 275 276 277 277 278 279 280 281 281 282 281 281 281 281 281 281 281 281 282 284 285 285 285 285 285 284 282 281 282 282 281 282 284 284 284 284 285 284 283 282 281 281
Height
5826 5826 5825 5825 5826 5826 5826 5827 5828 5829 5830 5831 5832 5832 5833 5833 5834 5834 5835 5835 5835 5835 5834 5833 5833 5833 5833 5833 5834 5835 5836 5836 5836 5836 5835 5834 5834 5835 5836 5837 5837 5837 5837 5837 5838 5838 5838 5838 5838 5839 5839 5839 5838 5838 5838 5838 5838 5838 5838 5838 5838 5838 5838 5837 5836 5836 5835 5834 5834 5833 5833 5832 5832 5831 5831 5831 5831 5830 5830 5829 5829 5828 5828 5828 5827
5823 5823 5823 5823 5824 5824 5824 5825 5826 5827 5828 5829 5830 5830 5831 5832 5832 5833 5833 5833 5833 5833 5832 5831 5831 5833 5833 5832 5832 5833 5834 5835 5835 5835 5834 5833 5833 5834 5835 5835 5835 5835 5836 5836 5836 5837 5837 5837 5837 5837 5838 5837 5837 5837 5837 5837 5837 5837 5837 5837 5837 5837 5837 5836 5835 5835 5834 5833 5833 5832 5832 5831 5831 5830 5830 5830 5829 5829 5828 5828 5828 5827 5826 5826 5825
5821 5821 5821 5821 5822 5822 5823 5823 5824 5825 5826 5827 5828 5829 5829 5830 5831 5831 5832 5832 5832 5831 5830 5830 5832 5833 5832 5832 5832 5833 5833 5834 5834 5834 5833 5832 5832 5832 5833 5833 5834 5834 5835 5835 5835 5835 5835 5836 5836 5836 5836 5836 5836 5836 5835 5835 5836 5836 5836 5836 5836 5836 5835 5835 5834 5834 5833 5832 5832 5831 5831 5830 5830 5830 5829 5829 5828 5828 5827 5827 5826 5826 5825 5824 5824
5818 5819 5819 5820 5821 5821 5821 5822 5822 5823 5824 5825 5826 5827 5827 5828 5829 5830 5830 5829 5829 5828 5828 5830 5832 5832 5831 5831 5831 5832 5833 5833 5833 5833 5831 5831 5831 5831 5832 5832 5833 5833 5833 5834 5834 5834 5834 5834 5835 5835 5835 5835 5835 5834 5834 5834 5835 5835 5835 5835 5835 5834 5834 5834 5833 5833 5832 5832 5831 5831 5830 5830 5829 5829 5829 5828 5828 5827 5826 5826 5825 5824 5824 5823 5822
5816 5816 5817 5817 5818 5819 5820 5820 5821 5822 5822 5823 5824 5825 5826 5826 5828 5828 5827 5826 5826 5827 5827 5829 5831 5831 5830 5830 5830 5830 5831 5831 5831 5831 5830 5829 5830 5830 5831 5831 5831 5832 5832 5833 5833 5833 5833 5833 5833 5834 5834 5834 5833 5833 5833 5833 5833 5833 5833 5833 5833 5833 5833 5833 5832 5832 5831 5831 5830 5830 5830 5829 5829 5828 5828 5827 5827 5826 5825 5824 5824 5823 5822 5822 5821
5813 5814 5814 5814 5816 5817 5817 5818 5820 5821 5821 5822 5823 5823 5824 5825 5826 5825 5825 5824 5824 5825 5826 5827 5828 5829 5829 5829 5828 5829 5829 5830 5830 5829 5828 5828 5828 5829 5830 5830 5830 5831 5831 5832 5832 5832 5832 5832 5832 5832 5833 5832 5832 5832 5832 5832 5832 5832 5832 5832 5832 5832 5832 5832 5831 5831 5831 5830 5830 5829 5829 5828 5828 5827 5827 5827 5826 5825 5824 5823 5823 5822 5821 5821 5820
5811 5811 5812 5812 5813 5814 5815 5817 5818 5819 5820 5820 5821 5822 5823 5823 5823 5823 5823 5824 5824 5824 5825 5826 5826 5827 5828 5828 5827 5827 5828 5829 5829 5828 5828 5828 5828 5828 5829 5830 5830 5830 5830 5831 5831 5831 5831 5831 5831 5831 5832 5831 5831 5831 5831 5831 5831 5831 5831 5831 5832 5831 5831 5831 5831 5830 5830 5830 5829 5829 5828 5828 5827 5827 5826 5826 5825 5824 5823 5822 5822 5821 5820 5819 5819
5808 5808 5809 5811 5812 5812 5813 5815 5817 5817 5818 5819 5819 5820 5820 5821 5821 5821 5822 5823 5823 5823 5824 5824 5824 5825 5826 5827 5826 5827 5827 5827 5827 5827 5827 5827 5827 5827 5828 5829 5829 5829 5829 5830 5830 5830 5830 5831 5831 5831 5831 5831 5831 5831 5831 5831 5831 5831 5831 5831 5831 5831 5831 5830 5830 5830 5829 5829 5828 5828 5827 5827 5826 5826 5825 5825 5824 5823 5822 5822 5821 5820 5819 5818 5818
5805 5805 5807 5809 5810 5811 5811 5813 5815 5816 5817 5817 5817 5818 5818 5818 5819 5819 5820 5821 5822 5822 5822 5823 5824 5825 5825 5825 5825 5826 5826 5826 5826 5826 5827 5827 5827 5827 5827 5828 5828 5828 5829 5829 5830 5830 5830 5830 5830 5830 5830 5830 5830 5830 5830 5830 5830 5830 5830 5830 5830 5830 5830 5829 5829 5829 5828 5828 5827 5827 5826 5826 5825 5825 5824 5824 5823 5822 5822 5821 5820 5819 5819 5818 5817
5804 5804 5806 5807 5808 5809 5810 5811 5813 5814 5815 5815 5816 5816 5817 5817 5818 5818 5819 5820 5821 5820 5821 5822 5824 5824 5824 5824 5824 5824 5825 5825 5825 5825 5826 5826 5826 5826 5826 5827 5827 5827 5828 5828 5829 5829 5830 5830 5830 5830 5830 5829 5829 5829 5829 5829 5829 5829 5829 5829 5829 5829 5829 5829 5828 5827 5827 5827 5826 5826 5825 5825 5824 5824 5823 5823 5822 5822 5821 5820 5820 5819 5818 5817 5816
5804 5804 5805 5806 5807 5808 5808 5809 5811 5812 5813 5813 5814 5815 5816 5816 5816 5817 5818 5818 5819 5819 5820 5821 5822 5823 5822 5822 5823 5823 5823 5824 5824 5824 5825 5825 5826 5826 5826 5826 5826 5827 5827 5828 5828 5829 5829 5829 5829 5829 5829 5828 5828 5828 5828 5828 5828 5828 5828 5828 5828 5828 5828 5827 5827 5826 5826 5826 5825 5825 5824 5824 5823 5823 5822 5822 5821 5821 5820 5820 5819 5818 5817 5816 5815
5804 5804 5804 5805 5805 5806 5807 5807 5809 5810 5811 5812 5813 5814 5814 5814 5815 5816 5816 5817 5817 5818 5819 5819 5820 5821 5821 5822 5821 5821 5822 5822 5822 5823 5824 5825 5825 5825 5825 5826 5826 5826 5827 5827 5828 5828 5828 5828 5828 5828 5828 5828 5827 5827 5828 5828 5827 5827 5827 5827 5827 5827 5827 5826 5826 5825 5825 5825 5824 5824 5823 5823 5823 5822 5822 5821 5820 5820 5819 5819 5818 5818 5817 5816 5815
5803 5804 5804 5804 5804 5805 5805 5806 5807 5809 5810 5811 5812 5812 5813 5814 5815 5814 5814 5815 5816 5817 5818 5819 5819 5820 5821 5821 5820 5820 5821 5821 5822 5822 5823 5824 5824 5824 5824 5825 5825 5825 5826 5826 5827 5827 5828 5828 5827 5827 5827 5827 5827 5827 5827 5827 5827 5826 5826 5826 5826 5826 5826 5825 5825 5824 5824 5824 5823 5823 5823 5822 5822 5821 5821 5820 5820 5819 5819 5818 5817 5817 5816 5815 5814
5802 5802 5803 5803 5803 5804 5804 5804 5806 5808 5809 5810 5811 5811 5812 5813 5813 5813 5813 5814 5814 5816 5817 5818 5819 5819 5820 5820 5819 5819 5820 5820 5821 5821 5822 5822 5823 5823 5823 5824 5824 5824 5825 5825 5826 5826 5827 5827 5826 5826 5826 5826 5826 5826 5826 5826 5826 5825 5825 5825 5825 5825 5825 5824 5824 5823 5823 5823 5822 5822 5822 5821 5821 5820 5820 5820 5819 5819 5818 5817 5816 5815 5815 5814 5813
5800 5801 5802 5802 5802 5803 5803 5803 5805 5807 5808 5809 5809 5809 5810 5811 5811 5811 5812 5812 5814 5815 5816 5816 5817 5818 5818 5818 5818 5819 5819 5820 5820 5820 5820 5821 5822 5822 5823 5823 5823 5823 5824 5824 5824 5825 5825 5825 5825 5825 5825 5825 5825 5825 5825 5825 5825 5825 5825 5824 5824 5824 5823 5823 5823 5822 5822 5822 5822 5821 5821 5821 5820 5820 5819 5819 5818 5818 5817 5816 5816 5815 5814 5813 5812
5799 5800 5801 5801 5801 5801 5802 5802 5804 5806 5807 5808 5807 5807 5808 5809 5810 5810 5810 5812 5813 5814 5815 5815 5816 5816 5816 5817 5817 5818 5819 5819 5818 5819 5819 5820 5820 5821 5821 5822 5822 5822 5823 5823 5823 5824 5824 5824 5824 5824 5824 5824 5824 5824 5824 5824 5824 5824 5823 5823 5823 5823 5822 5822 5822 5822 5821 5821 5821 5820 5820 5820 5820 5819 5819 5818 5818 5817 5817 5816 5815 5814 5813 5812 5811
5798 5799 5799 5800 5800 5801 5801 5802 5804 5805 5805 5805 5804 5804 5805 5807 5808 5809 5810 5812 5813 5813 5814 5814 5814 5815 5815 5816 5816 5817 5818 5818 5817 5818 5819 5819 5819 5820 5820 5821 5821 5821 5822 5822 5822 5822 5823 5823 5823 5823 5822 5822 5823 5823 5823 5823 5823 5823 5822 5822 5822 5822 5821 5821 5821 5821 5821 5820 5820 5820 5819 5819 5819 5818 5818 5817 5817 5816 5816 5815 5814 5813 5812 5811 5810
5796 5797 5797 5798 5799 5800 5801 5801 5803 5803 5802 5802 5801 5802 5803 5804 5806 5808 5810 5811 5811 5812 5813 5813 5813 5814 5814 5815 5815 5816 5816 5816 5816 5817 5817 5818 5818 5819 5819 5819 5820 5820 5820 5820 5820 5821 5821 5821 5821 5821 5821 5821 5821 5821 5822 5822 5822 5822 5821 5821 5821 5821 5821 5820 5820 5820 5820 5819 5819 5819 5819 5818 5818 5817 5817 5817 5816 5815 5814 5813 5812 5811 5810 5809 5808
5794 5795 5796 5797 5798 5799 5800 5800 5800 5800 5800 5799 5799 5801 5802 5803 5805 5807 5808 5809 5810 5810 5811 5812 5812 5812 5813 5813 5813 5814 5814 5815 5815 5815 5816 5817 5817 5818 5818 5818 5818 5818 5818 5818 5819 5820 5820 5820 5820 5820 5820 5820 5820 5820 5821 5821 5821 5821 5820 5820 5820 5820 5820 5820 5819 5819 5819 5819 5819 5818 5818 5817 5817 5817 5816 5815 5815 5814 5813 5812 5811 5810 5809 5808 5807
5793 5793 5795 5796 5797 5798 5798 5798 5798 5797 5798 5798 5798 5799 5801 5802 5803 5804 5806 5807 5807 5808 5809 5810 5810 5810 5811 5811 5812 5812 5813 5813 5814 5814 5815 5815 5816 5816 5816 5816 5816 5816 5817 5817 5818 5819 5819 5819 5819 5819 5819 5819 5819 5819 5819 5820 5820 5819 5819 5820 5820 5819 5819 5819 5819 5818 5818 5818 5818 5817 5817 5816 5816 5815 5815 5814 5813 5812 5811 5810 5809 5808 5807 5806 5805
5791 5792 5793 5794 5795 5796 5796 5796 5795 5794 5796 5796 5796 5797 5799 5800 5801 5802 5803 5804 5805 5806 5807 5808 5808 5808 5809 5809 5810 5810 5811 5812 5812 5813 5814 5814 5814 5815 5815 5814 5814 5815 5816 5816 5817 5818 5818 5818 5818 5818 5818 5818 5818 5818 5818 5818 5818 5818 5819 5819 5819 5819 5819 5818 5818 5817 5817 5817 5816 5816 5816 5815 5815 5814 5813 5812 5811 5810 5809 5808 5807 5806 5805 5804 5804
5789 5790 5790 5791 5793 5794 5794 5794 5793 5792 5794 5794 5794 5796 5798 5798 5799 5801 5802 5803 5804 5805 5805 5806 5806 5807 5807 5808 5808 5809 5809 5810 5811 5812 5812 5812 5813 5813 5813 5813 5814 5815 5815 5816 5816 5816 5817 5817 5816 5817 5817 5817 5817 5817 5817 5817 5818 5818 5818 5818 5818 5818 5818 5817 5817 5817 5816 5816 5815 5815 5814 5814 5813 5812 5812 5811 5810 5809 5807 5806 5805 5804 5803 5803 5802
5788 5788 5789 5790 5791 5792 5792 5792 5791 5791 5792 5793 5793 5795 5796 5797 5798 5799 5800 5801 5802 5803 5803 5804 5805 5805 5805 5806 5807 5807 5808 5808 5809 5810 5810 5811 5811 5812 5812 5812 5813 5814 5814 5815 5815 5815 5815 5815 5815 5815 5816 5816 5816 5816 5816 5817 5817 5817 5817 5817 5817 5817 5816 5816 5816 5815 5815 5814 5814 5813 5813 5812 5811 5811 5810 5809 5808 5807 5806 5805 5804 5803 5802 5801 5800
5786 5787 5787 5788 5789 5790 5790 5790 5789 5790 5790 5791 5791 5792 5794 5796 5797 5797 5798 5800 5800 5801 5801 5802 5802 5803 5803 5804 5805 5805 5806 5807 5808 5809 5809 5809 5810 5810 5811 5811 5812 5812 5813 5813 5814 5814 5814 5814 5814 5814 5814 5815 5815 5815 5815 5815 5816 5816 5816 5816 5815 5815 5815 5815 5814 5813 5813 5812 5812 5811 5811 5810 5809 5809 5808 5807 5806 5805 5804 5803 5802 5801 5801 5800 5799
5784 5785 5786 5787 5787 5788 5789 5788 5788 5789 5788 5788 5789 5790 5792 5794 5795 5796 5797 5798 5798 5799 5799 5800 5800 5801 5801 5802 5802 5803 5804 5805 5806 5807 5807 5808 5808 5809 5810 5810 5810 5811 5811 5811 5812 5812 5812 5812 5812 5813 5813 5813 5813 5814 5814 5814 5814 5814 5814 5814 5814 5813 5813 5813 5812 5811 5811 5810 5810 5809 5809 5808 5807 5807 5806 5805 5804 5804 5803 5802 5801 5800 5799 5798 5797
5783 5783 5784 5785 5785 5786 5786 5787 5786 5787 5786 5786 5787 5788 5790 5791 5792 5794 5795 5796 5796 5797 5797 5798 5798 5799 5799 5800 5800 5801 5802 5802 5803 5804 5805 5805 5806 5807 5808 5809 5809 5809 5810 5810 5810 5811 5810 5810 5811 5811 5811 5812 5812 5812 5812 5813 5813 5813 5812 5812 5812 5811 5811 5810 5809 5809 5808 5808 5808 5807 5807 5806 5805 5805 5804 5803 5803 5802 5801 5800 5800 5799 5798 5797 5796
5781 5782 5782 5783 5783 5784 5784 5785 5784 5784 5784 5785 5785 5786 5787 5788 5790 5792 5793 5794 5794 5795 5795 5796 5796 5797 5797 5798 5798 5799 5800 5800 5801 5802 5803 5804 5805 5805 5806 5807 5807 5808 5808 5808 5809 5809 5809 5809 5809 5810 5810 5810 5810 5811 5811 5811 5811 5811 5810 5810 5809 5809 5809 5808 5807 5807 5807 5806 5806 5805 5805 5804 5804 5803 5802 5802 5801 5800 5800 5799 5798 5797 5797 5796 5795
5779 5780 5781 5781 5782 5782 5782 5783 5783 5782 5782 5783 5784 5784 5785 5787 5788 5789 5791 5792 5792 5793 5793 5794 5795 5795 5796 5796 5797 5798 5798 5798 5799 5800 5801 5802 5803 5803 5804 5805 5806 5806 5807 5807 5808 5808 5807 5807 5808 5808 5808 5809 5809 5809 5809 5809 5809 5808 5808 5808 5807 5807 5806 5806 5805 5805 5805 5805 5804 5804 5803 5802 5802 5801 5801 5800 5799 5799 5798 5797 5797 5796 5796 5795 5794
5777 5778 5779 5780 5780 5780 5780 5780 5781 5780 5780 5781 5782 5783 5784 5785 5786 5787 5788 5789 5790 5791 5792 5792 5793 5794 5794 5795 5796 5797 5797 5797 5798 5799 5800 5801 5802 5802 5803 5804 5804 5804 5805 5805 5806 5806 5805 5805 5806 5806 5807 5807 5807 5807 5806 5806 5806 5806 5806 5805 5805 5804 5804 5804 5804 5803 5803 5803 5802 5802 5801 5801 5800 5800 5799 5799 5798 5797 5797 5796 5796 5795 5794 5794 5793
5776 5777 5777 5778 5777 5777 5777 5778 5778 5778 5778 5778 5780 5781 5782 5783 5784 5785 5786 5787 5789 5790 5790 5791 5792 5792 5793 5794 5794 5795 5795 5796 5797 5798 5799 5800 5800 5801 5802 5802 5802 5803 5803 5803 5804 5804 5804 5804 5804 5805 5805 5805 5805 5805 5804 5804 5804 5804 5804 5803 5803 5802 5802 5802 5802 5801 5801 5801 5800 5800 5800 5799 5799 5798 5798 5797 5796 5796 5795 5795 5794 5793 5793 5792 5791
5774 5774 5774 5775 5774 5774 5774 5775 5775 5775 5775 5776 5777 5779 5780 5780 5781 5783 5785 5785 5787 5788 5789 5790 5790 5791 5792 5792 5793 5794 5794 5795 5796 5797 5797 5798 5799 5800 5800 5800 5800 5801 5801 5801 5802 5802 5802 5802 5803 5803 5803 5803 5803 5803 5803 5803 5803 5802 5802 5801 5801 5800 5800 5800 5799 5799 5799 5798 5798 5798 5798 5797 5797 5796 5796 5795 5795 5794 5793 5793 5792 5792 5791 5790 5789
5771 5771 5771 5772 5772 5772 5772 5772 5773 5773 5773 5774 5776 5776 5777 5778 5779 5780 5783 5784 5784 5786 5787 5788 5789 5790 5791 5791 5792 5793 5793 5793 5794 5795 5796 5796 5797 5798 5798 5798 5799 5799 5799 5799 5800 5800 5800 5800 5801 5801 5800 5800 5801 5801 5801 5801 5801 5800 5800 5799 5799 5798 5798 5798 5797 5797 5796 5796 5796 5796 5795 5795 5794 5794 5794 5793 5793 5792 5792 5791 5790 5789 5789 5788 5787
5768 5768 5768 5769 5769 5770 5770 5771 5771 5771 5771 5772 5774 5775 5776 5777 5778 5779 5781 5782 5783 5784 5785 5787 5788 5788 5789 5790 5790 5791 5791 5792 5792 5793 5794 5794 5794 5795 5796 5796 5797 5797 5797 5798 5798 5798 5798 5798 5798 5799 5798 5798 5799 5799 5799 5799 5799 5798 5798 5797 5797 5796 5796 5795 5795 5794 5794 5794 5793 5793 5793 5792 5792 5792 5791 5791 5791 5790 5789 5789 5788 5787 5786 5785 5785
5765 5766 5766 5767 5768 5768 5769 5769 5769 5769 5770 5770 5772 5774 5775 5776 5777 5777 5778 5780 5781 5782 5783 5784 5785 5786 5787 5788 5788 5789 5790 5790 5790 5791 5792 5792 5792 5793 5794 5794 5795 5796 5795 5795 5796 5796 5796 5796 5796 5796 5796 5796 5797 5797 5797 5797 5796 5796 5795 5795 5794 5794 5794 5793 5792 5792 5791 5791 5791 5790 5790 5790 5790 5789 5789 5789 5788 5788 5787 5786 5786 5785 5784 5783 5782
5764 5764 5764 5765 5766 5766 5767 5767 5767 5768 5768 5769 5770 5772 5773 5774 5775 5776 5776 5777 5779 5780 5781 5782 5783 5783 5784 5785 5786 5787 5787 5787 5788 5788 5789 5790 5790 5791 5792 5793 5793 5794 5793 5793 5794 5794 5794 5794 5794 5794 5794 5794 5794 5794 5794 5794 5794 5793 5793 5792 5792 5791 5791 5790 5790 5789 5789 5788 5788 5788 5787 5787 5786 5787 5786 5786 5785 5785 5784 5784 5783 5782 5781 5781 5780
5762 5762 5762 5763 5764 5764 5765 5766 5766 5766 5767 5767 5768 5769 5771 5772 5773 5774 5775 5776 5777 5778 5779 5780 5781 5781 5782 5783 5783 5784 5785 5785 5785 5786 5788 5789 5789 5789 5790 5791 5792 5792 5792 5791 5792 5792 5792 5792 5791 5791 5792 5792 5792 5792 5792 5791 5791 5790 5790 5789 5789 5788 5788 5788 5787 5787 5786 5786 5785 5785 5784 5783 5783 5783 5783 5783 5782 5782 5781 5781 5780 5779 5779 5778 5778
5760 5760 5760 5761 5761 5763 5764 5764 5764 5764 5765 5765 5766 5767 5768 5769 5771 5772 5773 5775 5775 5776 5777 5778 5778 5779 5780 5780 5781 5782 5783 5783 5784 5785 5786 5787 5788 5787 5788 5789 5790 5790 5790 5789 5789 5790 5790 5790 5789 5789 5789 5789 5789 5789 5789 5789 5788 5787 5787 5786 5786 5786 5785 5785 5784 5784 5783 5783 5782 5782 5781 5780 5780 5779 5779 5779 5779 5778 5778 5777 5777 5776 5775 5775 5774
5759 5758 5758 5759 5760 5761 5762 5761 5761 5761 5762 5763 5764 5765 5766 5767 5768 5769 5771 5773 5773 5775 5775 5776 5777 5778 5778 5779 5779 5780 5781 5781 5782 5783 5784 5785 5785 5785 5785 5786 5787 5787 5788 5787 5786 5786 5787 5787 5787 5787 5787 5787 5786 5786 5786 5786 5785 5785 5784 5784 5783 5783 5783 5782 5782 5781 5781 5780 5779 5779 5778 5777 5776 5776 5775 5776 5775 5775 5774 5773 5773 5772 5771 5771 5770
5756 5756 5756 5757 5758 5758 5758 5758 5758 5759 5760 5761 5762 5763 5764 5765 5765 5766 5768 5769 5771 5772 5773 5773 5775 5776 5776 5777 5778 5778 5778 5778 5780 5781 5782 5782 5782 5782 5783 5783 5784 5784 5785 5784 5784 5783 5784 5784 5784 5784 5784 5784 5784 5783 5783 5782 5782 5782 5782 5781 5781 5781 5780 5780 5779 5778 5777 5776 5776 5775 5774 5773 5772 5771 5771 5771 5771 5770 5770 5769 5768 5767 5766 5766 5765
5753 5753 5753 5754 5754 5755 5755 5755 5756 5757 5758 5759 5760 5762 5763 5764 5764 5765 5766 5767 5768 5770 5770 5770 5772 5773 5774 5774 5775 5776 5776 5776 5777 5778 5779 5780 5780 5780 5780 5780 5780 5781 5781 5781 5781 5781 5781 5781 5781 5781 5781 5781 5780 5780 5780 5780 5779 5778 5778 5778 5778 5777 5777 5776 5776 5775 5774 5772 5771 5770 5769 5768 5767 5767 5767 5767 5766 5765 5765 5764 5763 5762 5761 5760 5759
5749 5749 5751 5751 5750 5751 5751 5752 5754 5756 5757 5757 5758 5759 5760 5761 5762 5763 5763 5764 5765 5767 5767 5767 5769 5770 5771 5771 5772 5773 5773 5773 5774 5775 5776 5777 5777 5777 5777 5777 5777 5777 5777 5778 5778 5778 5778 5777 5777 5778 5778 5777 5776 5776 5776 5776 5776 5775 5775 5775 5774 5774 5773 5773 5772 5772 5771 5770 5769 5768 5766 5765 5763 5763 5762 5761 5760 5760 5760 5759 5758 5757 5756 5755 5753
5744 5747 5749 5748 5747 5747 5748 5750 5751 5753 5754 5755 5755 5756 5757 5758 5759 5760 5761 5761 5762 5764 5764 5765 5766 5767 5768 5768 5769 5769 5770 5771 5771 5772 5773 5774 5774 5774 5774 5774 5774 5773 5773 5774 5774 5774 5774 5774 5774 5774 5774 5773 5773 5772 5772 5771 5771 5771 5771 5770 5770 5770 5769 5769 5769 5769 5768 5767 5766 5765 5764 5762 5760 5759 5758 5756 5755 5754 5753 5752 5751 5751 5750 5749 5748
5741 5744 5746 5744 5744 5744 5745 5747 5748 5750 5751 5752 5753 5754 5754 5755 5757 5758 5758 5758 5759 5760 5761 5762 5763 5764 5764 5765 5765 5766 5768 5768 5769 5769 5770 5770 5770 5770 5770 5770 5771 5771 5770 5770 5769 5769 5769 5770 5770 5769 5769 5768 5768 5767 5767 5766 5766 5765 5765 5764 5764 5764 5764 5764 5764 5764 5763 5762 5761 5760 5759 5757 5755 5754 5753 5752 5751 5749 5747 5746 5745 5744 5744 5743 5741
5739 5742 5741 5740 5741 5742 5743 5744 5745 5746 5748 5749 5750 5751 5751 5752 5753 5754 5755 5755 5756 5757 5759 5759 5760 5760 5761 5762 5763 5763 5764 5765 5765 5765 5766 5766 5767 5767 5767 5767 5767 5767 5767 5766 5765 5765 5765 5765 5765 5764 5764 5763 5763 5762 5762 5761 5761 5761 5760 5759 5758 5758 5758 5758 5758 5758 5757 5756 5755 5754 5753 5751 5749 5748 5747 5747 5745 5744 5742 5741 5740 5739 5738 5736 5734
5737 5738 5738 5737 5739 5740 5740 5741 5742 5743 5744 5745 5746 5747 5748 5749 5750 5751 5752 5752 5753 5754 5755 5756 5756 5756 5758 5759 5759 5759 5760 5761 5761 5762 5762 5762 5762 5762 5763 5763 5763 5763 5763 5762 5762 5762 5761 5761 5761 5760 5760 5759 5758 5758 5757 5757 5757 5756 5756 5755 5754 5753 5753 5753 5752 5752 5751 5750 5749 5748 5746 5745 5743 5742 5741 5740 5739 5738 5736 5735 5734 5732 5731 5730 5728
5734 5734 5734 5735 5736 5737 5737 5738 5738 5739 5740 5742 5743 5743 5744 5746 5747 5748 5748 5749 5750 5751 5752 5752 5753 5754 5755 5756 5755 5756 5757 5758 5758 5758 5758 5758 5758 5758 5758 5758 5758 5758 5758 5758 5758 5758 5758 5758 5757 5756 5756 5755 5754 5753 5753 5753 5752 5751 5751 5750 5749 5749 5749 5748 5748 5746 5745 5744 5743 5741 5740 5739 5737 5735 5735 5734 5733 5732 5730 5728 5726 5725 5724 5723 5721
5730 5730 5731 5732 5733 5734 5734 5735 5736 5737 5737 5738 5739 5740 5741 5742 5743 5744 5745 5746 5747 5748 5748 5748 5750 5751 5752 5752 5752 5753 5754 5754 5755 5754 5754 5754 5754 5754 5754 5753 5753 5753 5753 5753 5753 5753 5753 5753 5753 5752 5751 5750 5750 5749 5748 5747 5747 5746 5746 5745 5744 5744 5743 5742 5742 5741 5739 5737 5735 5733 5733 5732 5730 5729 5730 5728 5726 5726 5724 5722 5720 5718 5716 5715 5713
5726 5727 5728 5728 5729 5730 5731 5731 5732 5734 5734 5735 5736 5737 5738 5738 5739 5741 5742 5743 5744 5745 5745 5746 5747 5748 5749 5749 5749 5749 5750 5750 5750 5750 5750 5749 5749 5750 5749 5749 5749 5749 5749 5749 5749 5748 5748 5748 5748 5747 5746 5745 5745 5744 5743 5742 5741 5740 5739 5739 5738 5737 5736 5735 5735 5734 5733 5730 5728 5725 5724 5724 5723 5722 5722 5721 5719 5719 5718 5716 5714 5712 5709 5707 5706
5722 5723 5724 5724 5726 5727 5727 5728 5729 5730 5731 5732 5733 5734 5734 5735 5735 5736 5738 5740 5740 5741 5741 5742 5742 5743 5745 5745 5745 5745 5745 5745 5745 5745 5745 5745 5745 5745 5745 5745 5745 5745 5745 5745 5744 5744 5744 5743 5743 5743 5742 5741 5739 5738 5737 5736 5735 5734 5733 5733 5732 5730 5728 5728 5728 5727 5726 5723 5721 5718 5717 5717 5716 5715 5714 5712 5711 5711 5710 5708 5707 5705 5702 5700 5698
5718 5719 5720 5721 5722 5723 5724 5725 5726 5727 5728 5729 5729 5730 5730 5731 5731 5732 5734 5736 5736 5736 5737 5737 5738 5739 5740 5741 5741 5741 5741 5741 5741 5741 5741 5741 5741 5741 5741 5741 5741 5741 5740 5740 5740 5739 5739 5739 5738 5738 5737 5736 5734 5733 5732 5730 5728 5727 5726 5725 5724 5721 5720 5720 5720 5719 5719 5718 5715 5710 5708 5710 5709 5706 5705 5705 5703 5701 5700 5699 5698 5696 5693 5691 5690
5714 5716 5717 5717 5718 5719 5720 5722 5723 5724 5725 5725 5725 5726 5726 5727 5727 5728 5730 5731 5732 5732 5733 5734 5734 5735 5736 5736 5737 5737 5736 5736 5736 5737 5737 5737 5737 5737 5737 5737 5736 5736 5736 5735 5735 5734 5734 5733 5733 5732 5731 5730 5729 5728 5726 5724 5722 5720 5718 5718 5716 5713 5713 5713 5711 5710 5710 5711 5709 5703 5700 5701 5700 5698 5697 5697 5695 5692 5691 5690 5688 5686 5683 5682 5681